Location: Plainartige
(45.6866°N, 1.7993°E)
Time: 03:19:04
(UTC+00:00)

RS-15 - Pass Details

Date: 01 July 2022
Orbit: 1881 x 2163 km, 64.8° (Epoch: 10 August)

Event Time Altitude Azimuth Distance (km) Brightness Sun altitude
Rises 20:53:08 0° 310° (NW) 5,680 12.6 -9.6°
Reaches altitude 10° 20:57:04 10° 319° (NW) 4,687 11.7 -10.1°
Maximum altitude 21:08:30 40° 26° (NNE) 2,918 9.2 -11.4°
Drops below altitude 10° 21:19:41 10° 93° (E) 4,609 9.6 -12.5°
Sets 21:23:28 0° 101° (ESE) 5,577 10.0 -12.9°
